[ hide orbit diagram ]
For accurate long-term ephemerides, please instead use our Horizons system.This orbit viewer was implemented using two-body methods, and hence should not be used for determining accurate long-term trajectories (over several years or decades) or planetary encounter circumstances.
Orbital Elements at Epoch 2459000.5 (2020-May-31.0) TDB
Reference: JPL 17 (heliocentric ecliptic J2000)
Element | Value | Uncertainty (1-sigma) | Units |
e | .2552419521487732 | 3.1928e-08 | |
a | 2.541980106085843 | 9.887e-09 | au |
q | 1.893160141485147 | 8.098e-08 | au |
i | 5.520038480691574 | 5.0299e-06 | deg |
node | 82.54512632847972 | 6.8461e-05 | deg |
peri | 201.1728014176223 | 7.0942e-05 | deg |
M | 41.28513658736753 | 1.973e-05 | deg |
tp | 2458830.735111356941 (2019-Dec-13.23511136) | 8.0711e-05 | TDB |
period | 1480.323548940406 4.05 | 8.6366e-06 2.365e-08 | d yr |
n | .2431900784512162 | 1.4188e-09 | deg/d |
Q | 3.19080007068654 | 1.2411e-08 | au |
|
| | Orbit Determination Parameters
Additional Information
|
[ show covariance matrix ]
Physical Parameter Table
Parameter |
Symbol |
Value |
Units |
Sigma |
Reference |
Notes |
absolute magnitude |
H |
15.9 |
|
n/a |
MPO432544 |
|
|
101837 (1999 JQ60) Discovered 1999-May-10 by LINEAR at Socorro |
Reference: 20051019/Numbers.arc | Last Updated: 2005-10-26 |
|
[ show close-approach data ]
|